CYBX

Lourdes de Blanc Sablon Airport

ICAO Code CYBX
IATA Code YBX
Name Lourdes de Blanc Sablon Airport
Location Lourdes-De-Blanc-Sablon, Quebec, CA
Elevation 122 Feet / 37.2 Meters
Latitude 51.44194444
Longitude -57.18611111
METAR CYBX 012300Z 23019G26KT 15SM SCT012 BKN064 14/13 A2965 RMK SC3SC2 SLP044 DENSITY ALT 400FT
Extra information Display Charts and CFS
Display NOTAMS
Runway Length Width Surface Elevation
05 4500 ft 150 ft ASP 79 ft
23 4500 ft 150 ft ASP 122 ft